Regional Weather Roundup
Issued by NWS

Home | Current Version | Previous Version | Graphics & Text | Print | Product List | Glossary Off
Versions: 1 2 3 4 5 6 7 8 9 10 11 12 13 14 15 16 17 18 19 20 21 22 23 24 25 26 27 28 29 30 31 32 33 34 35 36 37 38 39 40 41 42 43 44 45 46 47 48 49 50

000
ASUS43 KMKX 250821
RWRWI

WISCONSIN REGIONAL WEATHER ROUNDUP
NATIONAL WEATHER SERVICE MILWAUKEE/SULLIVAN WI
300 AM CDT SAT OCT 25 2014

NOTE: "FAIR" INDICATES FEW OR NO CLOUDS BELOW 12,000 FEET WITH NO
SIGNIFICANT WEATHER AND/OR OBSTRUCTIONS TO VISIBILITY.

WIZ001-002-006>008-014>016-023>028-250900-
NORTHWEST WISCONSIN

CITY           SKY/WX    TMP DP  RH WIND       PRES   REMARKS
SUPERIOR ARPT  CLEAR     49  37  64 SW8       29.82S
ASHLAND        CLEAR     53  40  61 SW8       29.81S
HAYWARD        CLEAR     55  39  54 VRB7      29.86R
SIREN          CLEAR     51  38  63 W6        29.90R
CUMBERLAND     CLEAR     52  37  58 W9        29.89R
RICE LAKE      CLEAR     46  45  94 W5        29.90R
CHETEK         CLEAR     52  45  75 W6        29.89R
LADYSMITH        N/A     47  46  97 W6        29.87R FOG
EAU CLAIRE     CLEAR     48  47  96 SW5       29.89R
MENOMONIE      CLEAR     53  44  74 W7        29.90R
NEW RICHMOND   PTCLDY    52  41  65 NW9       29.93R
OSCEOLA        CLEAR     53  41  63 W8        29.96R
$$

WIZ003>005-009-010-017-018-250900-
NORTH CENTRAL WISCONSIN

CITY           SKY/WX    TMP DP  RH WIND       PRES   REMARKS
MANITOWISH WTR CLEAR     50  49  95 W7        29.80S
ARBOR VITAE    CLEAR     53  50  89 W5        29.81R
WOODRUFF       CLEAR     53  50  89 W5        29.81R
RHINELANDER    CLEAR     50  49  96 W9        29.82R FOG
EAGLE RIVER    CLEAR     50  50  97 W8        29.79S FOG
LAND O LAKES   CLEAR     52  49  88 W7        29.79S
PHILLIPS       CLEAR     51  49  93 W3        29.83R
TOMAHAWK       PTCLDY    51  49  93 W9        29.83R FOG
MEDFORD        PTCLDY    51  50  97 W9        29.85R FOG
MERRILL        PTCLDY    53  52  98 W8        29.83S FOG
$$

WIZ029-030-035-036-043>047-250900-
CENTRAL WISCONSIN

CITY           SKY/WX    TMP DP  RH WIND       PRES   REMARKS
WAUSAU         PTCLDY    54  52  93 W12       29.82S
MOSINEE        CLOUDY    54  54 100 W10       29.86R FOG
MARSHFIELD     PTCLDY    54  52  93 W9        29.86R FOG
STEVENS POINT  CLOUDY    53  52  95 W10G20    29.85R FOG
WAUPACA        CLOUDY    58  56  94 W8        29.84S FOG
WAUTOMA        CLOUDY    56  54  93 W8        29.86S FOG
WISC RAPIDS    CLOUDY    55  53  93 W10       29.88R FOG
CAMP DOUGLAS   NOT AVBL
$$

WIZ011>013-019>022-031-037>040-048>050-250900-
NORTHEAST WISCONSIN

CITY           SKY/WX    TMP DP  RH WIND       PRES   REMARKS
ANTIGO         MOCLDY    53  51  95 W10       29.82R FOG
SHAWANO        MOCLDY    57  54  88 W7        29.81R
OCONTO         PTCLDY    54  54 100 W7        29.77F
STURGEON BAY   PTCLDY    54  50  87 SW9       29.78F
GREEN BAY      CLOUDY    54  52  93 S5        29.80F FOG
MANITOWOC      CLOUDY    57  54  89 W12       29.81F
APPLETON       CLOUDY    54  52  94 W8        29.83S
CLINTONVILLE   CLOUDY    55  54  94 W7        29.82R
OSHKOSH        CLOUDY    56  54  93 W9        29.83F FOG
$$

WIZ032>034-041-042-053>061-250900-
SOUTHWEST WISCONSIN

CITY           SKY/WX    TMP DP  RH WIND       PRES   REMARKS
LA CROSSE      CLEAR     56  53  90 CALM      29.91R FOG
SPARTA         CLEAR     54  54  99 SW7       29.91R FOG
VIROQUA        CLOUDY    55  55 100 W6        29.92R
BOSCOBEL       CLEAR     56  54  93 SW6       29.92S FOG
PRAIRIE DU CHI CLEAR     57  55  91 W5        29.92S FOG
PLATTEVILLE    CLOUDY    58  57  96 W9        29.93S
$$

WIZ056-057-062-063-064-067-068-250900-
SOUTH CENTRAL WISCONSIN

CITY           SKY/WX    TMP DP  RH WIND       PRES   REMARKS
REEDSBURG      CLEAR     55  54  95 SW5       29.89S FOG
BARABOO/DELLS  CLEAR     55  52  91 SW7       29.88S FOG
LONE ROCK      CLOUDY    62  55  77 W6        29.90F
MINERAL POINT  CLOUDY    59  55  88 W7        29.91F FOG
MADISON        PTCLDY    58  54  86 W8        29.88F
MIDDLETON      PTCLDY    58  57  94 W13       29.89S
WATERTOWN      CLOUDY    55  55 100 SW3       29.87F
MONROE         CLOUDY    55  55 100 W14G20    29.91S FOG
JANESVILLE     CLOUDY    57  55  94 W7        29.91R FOG
$$

WIZ051-052-058>065-066-070>072-250900-
SOUTHEAST WISCONSIN

CITY           SKY/WX    TMP DP  RH WIND       PRES   REMARKS
MILWAUKEE      MOCLDY    55  49  80 W7        29.87S
WAUKESHA       CLOUDY    54  52  94 W15G22    29.88S
MILWAUKEE/TIMM MOCLDY    54  50  87 W8        29.87S
RACINE         MOCLDY    53  48  83 W5        29.89R
BURLINGTON     CLEAR     54  53  96 W6        29.88S
KENOSHA        PTCLDY    53  51  93 W7        29.88R
FOND DU LAC    CLOUDY    54  51  90 W5        29.85S FOG
SHEBOYGAN      MOCLDY    56  53  90 W16       29.83F
WEST BEND      CLOUDY    54  50  87 W12       29.85F FOG
JUNEAU         CLOUDY    54  53  95 W8        29.88S FOG
$$

LSZ147-162-250900-
LAKE SUPERIOR

STATION/POSITION TIME  TEMP    WIND        PRES    WAVE
                       AIR SEA DIR/SP/G            HT/PER
                 (UTC) (F)     (DEG/KT/KT) (MB)    (FT/S)
W MID LAKE BUOY  0750   52 46  250/ 14/ 17 1005.9R   4/ 5
DEVILS ISLAND    0800   56     260/ 20/ 23 1007.7R
PORT WING        0700   59     250/ 14/ 19 1009.1
SAXON HARBOR     0740   59     230/  5/ 10 1009.1R
$$

LMZ867-665-643>646-250900-
LAKE MICHIGAN

STATION/POSITION TIME  TEMP    WIND        PRES    WAVE
                       AIR SEA DIR/SP/G            HT/PER
                 (UTC) (F)     (DEG/KT/KT) (MB)    (FT/S)
CHAMBERS ISLAND  0700   54     200/  6/ 11 1008.1F
N MID LAKE BUOY  0750   53 51  220/ 16/ 19 1007.0F   5/ 6
NORTHPORT PIER   0701   55     250/  6/ 16 1007.8F
SISTER BAY       0613          220/ 14/ 18   N/A
KEWAUNEE LAKESHO 0800   55     260/  9/ 11 1007.9F
SHEBOYGAN LAKESH 0800   55 52  250/  6/  7 1010.5S
PORT WASHINGTON  0740   54     270/  6/  8 1011.5S
ATWATER BUOY     0800   56     260/  4/  6 1012.3R
MILWAUKEE LAKESH 0800   57     260/  9/ 11   N/A
S MID LAKE BUOY  0750   56 54  220/ 12/ 14 1011.3R   1/ 3
KENOSHA   LAKESH 0800   56     260/  7/ 11 1011.9R
$$

TC  - TEMPERATURE IN CELSIUS
VSB - VISIBILITY IN STATUTE MILES
WCI - WIND CHILL INDEX
HX  - HEAT INDEX




USA.gov is the U.S. government's official web portal to all federal, state and local government web resources and services.